Year,Month,Day,Hour,Minute,Value (Times are PST for temperature in C)
2012,08,17,00,00,21.40
2012,08,17,00,01,21.30
2012,08,17,00,02,21.30
2012,08,17,00,03,21.30
2012,08,17,00,04,21.30
2012,08,17,00,05,21.30
2012,08,17,00,06,21.30
2012,08,17,00,07,21.30
2012,08,17,00,08,21.30
2012,08,17,00,09,21.30
2012,08,17,00,10,21.30
2012,08,17,00,11,21.30
2012,08,17,00,12,21.30
2012,08,17,00,13,21.30
2012,08,17,00,14,21.30
2012,08,17,00,15,21.30
2012,08,17,00,16,21.30
2012,08,17,00,17,21.30
2012,08,17,00,18,21.30
2012,08,17,00,19,21.30
2012,08,17,00,20,21.20
2012,08,17,00,21,21.20
2012,08,17,00,22,21.20
2012,08,17,00,23,21.20
2012,08,17,00,24,21.20
2012,08,17,00,25,21.20
2012,08,17,00,26,21.20
2012,08,17,00,27,21.20
2012,08,17,00,28,21.20
2012,08,17,00,29,21.20
2012,08,17,00,30,21.10
2012,08,17,00,31,21.10
2012,08,17,00,32,21.10
2012,08,17,00,33,21.00
2012,08,17,00,34,20.90
2012,08,17,00,35,20.90
2012,08,17,00,36,20.90
2012,08,17,00,37,20.80
2012,08,17,00,38,20.80
2012,08,17,00,39,20.80
2012,08,17,00,40,20.70
2012,08,17,00,41,20.70
2012,08,17,00,42,20.60
2012,08,17,00,43,20.60
2012,08,17,00,44,20.60
2012,08,17,00,45,20.60
2012,08,17,00,46,20.50
2012,08,17,00,47,20.50
2012,08,17,00,48,20.50
2012,08,17,00,49,20.50
2012,08,17,00,50,20.40
2012,08,17,00,51,20.40
2012,08,17,00,52,20.40
2012,08,17,00,53,20.40
2012,08,17,00,54,20.40
2012,08,17,00,55,20.40
2012,08,17,00,56,20.40
2012,08,17,00,57,20.40
2012,08,17,00,58,20.40
2012,08,17,00,59,20.40
2012,08,17,01,00,20.40
2012,08,17,01,01,20.40
2012,08,17,01,02,20.40
2012,08,17,01,03,20.40
2012,08,17,01,04,20.40
2012,08,17,01,05,20.40
2012,08,17,01,06,20.40
2012,08,17,01,07,20.40
2012,08,17,01,08,20.40
2012,08,17,01,09,20.40
2012,08,17,01,10,20.50
2012,08,17,01,11,20.50
2012,08,17,01,12,20.50
2012,08,17,01,13,20.50
2012,08,17,01,14,20.60
2012,08,17,01,15,20.60
2012,08,17,01,16,20.60
2012,08,17,01,17,20.50
2012,08,17,01,18,20.50
2012,08,17,01,19,20.50
2012,08,17,01,20,20.40
2012,08,17,01,21,20.40
2012,08,17,01,22,20.30
2012,08,17,01,23,20.30
2012,08,17,01,24,20.20
2012,08,17,01,25,20.20
2012,08,17,01,26,20.20
2012,08,17,01,27,20.10
2012,08,17,01,28,20.10
2012,08,17,01,29,20.10
2012,08,17,01,30,20.10
2012,08,17,01,31,20.00
2012,08,17,01,32,20.00
2012,08,17,01,33,19.90
2012,08,17,01,34,19.80
2012,08,17,01,35,19.70
2012,08,17,01,36,19.50
2012,08,17,01,37,19.40
2012,08,17,01,38,19.30
2012,08,17,01,39,19.20
2012,08,17,01,40,19.10
2012,08,17,01,41,19.00
2012,08,17,01,42,18.90
2012,08,17,01,43,18.80
2012,08,17,01,44,18.80
2012,08,17,01,45,18.70
2012,08,17,01,46,18.60
2012,08,17,01,47,18.50
2012,08,17,01,48,18.50
2012,08,17,01,49,18.40
2012,08,17,01,50,18.40
2012,08,17,01,51,18.30
2012,08,17,01,52,18.30
2012,08,17,01,53,18.20
2012,08,17,01,54,18.20
2012,08,17,01,55,18.20
2012,08,17,01,56,18.20
2012,08,17,01,57,18.20
2012,08,17,01,58,18.10
2012,08,17,01,59,18.10
2012,08,17,02,00,18.10
2012,08,17,02,01,18.10
2012,08,17,02,02,18.10
2012,08,17,02,03,18.10
2012,08,17,02,04,18.10
2012,08,17,02,05,18.10
2012,08,17,02,06,18.00
2012,08,17,02,07,18.00
2012,08,17,02,08,18.00
2012,08,17,02,09,17.90
2012,08,17,02,10,17.90
2012,08,17,02,11,17.90
2012,08,17,02,12,17.90
2012,08,17,02,13,17.80
2012,08,17,02,14,17.80
2012,08,17,02,15,17.80
2012,08,17,02,16,17.80
2012,08,17,02,17,17.80
2012,08,17,02,18,17.80
2012,08,17,02,19,17.80
2012,08,17,02,20,17.80
2012,08,17,02,21,17.70
2012,08,17,02,22,17.70
2012,08,17,02,23,17.70
2012,08,17,02,24,17.70
2012,08,17,02,25,17.60
2012,08,17,02,26,17.60
2012,08,17,02,27,17.60
2012,08,17,02,28,17.60
2012,08,17,02,29,17.60
2012,08,17,02,30,17.60
2012,08,17,02,31,17.60
2012,08,17,02,32,17.60
2012,08,17,02,33,17.50
2012,08,17,02,34,17.50
2012,08,17,02,35,17.60
2012,08,17,02,36,17.60
2012,08,17,02,37,17.60
2012,08,17,02,38,17.60
2012,08,17,02,39,17.60
2012,08,17,02,40,17.60
2012,08,17,02,41,17.70
2012,08,17,02,42,17.70
2012,08,17,02,43,17.70
2012,08,17,02,44,17.70
2012,08,17,02,45,17.70
2012,08,17,02,46,17.80
2012,08,17,02,47,17.80
2012,08,17,02,48,17.80
2012,08,17,02,49,17.80
2012,08,17,02,50,17.80
2012,08,17,02,51,17.80
2012,08,17,02,52,17.80
2012,08,17,02,53,17.80
2012,08,17,02,54,17.80
2012,08,17,02,55,17.80
2012,08,17,02,56,17.80
2012,08,17,02,57,17.80
2012,08,17,02,58,17.80
2012,08,17,02,59,17.80
2012,08,17,03,00,17.80
2012,08,17,03,01,17.80
2012,08,17,03,02,17.80
2012,08,17,03,03,17.80
2012,08,17,03,04,17.80
2012,08,17,03,05,17.80
2012,08,17,03,06,17.80
2012,08,17,03,07,17.80
2012,08,17,03,08,17.70
2012,08,17,03,09,17.70
2012,08,17,03,10,17.70
2012,08,17,03,11,17.70
2012,08,17,03,12,17.60
2012,08,17,03,13,17.60
2012,08,17,03,14,17.60
2012,08,17,03,15,17.60
2012,08,17,03,16,17.60
2012,08,17,03,17,17.50
2012,08,17,03,18,17.50
2012,08,17,03,19,17.50
2012,08,17,03,20,17.50
2012,08,17,03,21,17.50
2012,08,17,03,22,17.50
2012,08,17,03,23,17.50
2012,08,17,03,24,17.50
2012,08,17,03,25,17.60
2012,08,17,03,26,17.60
2012,08,17,03,27,17.50
2012,08,17,03,28,17.50
2012,08,17,03,29,17.50
2012,08,17,03,30,17.50
2012,08,17,03,31,17.50
2012,08,17,03,32,17.50
2012,08,17,03,33,17.50
2012,08,17,03,34,17.50
2012,08,17,03,35,17.50
2012,08,17,03,36,17.50
2012,08,17,03,37,17.50
2012,08,17,03,38,17.50
2012,08,17,03,39,17.50
2012,08,17,03,40,17.50
2012,08,17,03,41,17.60
2012,08,17,03,42,17.60
2012,08,17,03,43,17.60
2012,08,17,03,44,17.70
2012,08,17,03,45,17.80
2012,08,17,03,46,17.90
2012,08,17,03,47,17.90
2012,08,17,03,48,18.00
2012,08,17,03,49,18.00
2012,08,17,03,50,18.10
2012,08,17,03,51,18.20
2012,08,17,03,52,18.20
2012,08,17,03,53,18.20
2012,08,17,03,54,18.30
2012,08,17,03,55,18.30
2012,08,17,03,56,18.30
2012,08,17,03,57,18.30
2012,08,17,03,58,18.30
2012,08,17,03,59,18.30
2012,08,17,04,00,18.30
2012,08,17,04,01,18.30
2012,08,17,04,02,18.30
2012,08,17,04,03,18.30
2012,08,17,04,04,18.30
2012,08,17,04,05,18.30
2012,08,17,04,06,18.20
2012,08,17,04,07,18.20
2012,08,17,04,08,18.20
2012,08,17,04,09,18.20
2012,08,17,04,10,18.10
2012,08,17,04,11,18.10
2012,08,17,04,12,18.10
2012,08,17,04,13,18.00
2012,08,17,04,14,18.00
2012,08,17,04,15,17.90
2012,08,17,04,16,17.90
2012,08,17,04,17,17.90
2012,08,17,04,18,17.80
2012,08,17,04,19,17.80
2012,08,17,04,20,17.80
2012,08,17,04,21,17.80
2012,08,17,04,22,17.80
2012,08,17,04,23,17.80
2012,08,17,04,24,17.80
2012,08,17,04,25,17.80
2012,08,17,04,26,17.80
2012,08,17,04,27,17.80
2012,08,17,04,28,17.90
2012,08,17,04,29,17.90
2012,08,17,04,30,17.90
2012,08,17,04,31,17.90
2012,08,17,04,32,17.90
2012,08,17,04,33,17.80
2012,08,17,04,34,17.80
2012,08,17,04,35,17.80
2012,08,17,04,36,17.80
2012,08,17,04,37,17.70
2012,08,17,04,38,17.70
2012,08,17,04,39,17.70
2012,08,17,04,40,17.60
2012,08,17,04,41,17.60
2012,08,17,04,42,17.60
2012,08,17,04,43,17.50
2012,08,17,04,44,17.50
2012,08,17,04,45,17.40
2012,08,17,04,46,17.40
2012,08,17,04,47,17.40
2012,08,17,04,48,17.30
2012,08,17,04,49,17.30
2012,08,17,04,50,17.30
2012,08,17,04,51,17.20
2012,08,17,04,52,17.20
2012,08,17,04,53,17.20
2012,08,17,04,54,17.20
2012,08,17,04,55,17.10
2012,08,17,04,56,17.10
2012,08,17,04,57,17.10
2012,08,17,04,58,17.10
2012,08,17,04,59,17.10
2012,08,17,05,00,17.10
2012,08,17,05,01,17.10
2012,08,17,05,02,17.10
2012,08,17,05,03,17.10
2012,08,17,05,04,17.10
2012,08,17,05,05,17.00
2012,08,17,05,06,17.00
2012,08,17,05,07,17.00
2012,08,17,05,08,17.00
2012,08,17,05,09,16.90
2012,08,17,05,10,16.90
2012,08,17,05,11,16.90
2012,08,17,05,12,16.90
2012,08,17,05,13,16.90
2012,08,17,05,14,16.90
2012,08,17,05,15,16.90
2012,08,17,05,16,16.90
2012,08,17,05,17,16.90
2012,08,17,05,18,16.90
2012,08,17,05,19,16.90
2012,08,17,05,20,17.00
2012,08,17,05,21,17.00
2012,08,17,05,22,17.00
2012,08,17,05,23,17.00
2012,08,17,05,24,17.00
2012,08,17,05,25,17.00
2012,08,17,05,26,17.00
2012,08,17,05,27,17.00
2012,08,17,05,28,17.00
2012,08,17,05,29,17.00
2012,08,17,05,30,17.00
2012,08,17,05,31,17.00
2012,08,17,05,32,17.00
2012,08,17,05,33,16.90
2012,08,17,05,34,16.90
2012,08,17,05,35,16.90
2012,08,17,05,36,16.90
2012,08,17,05,37,16.90
2012,08,17,05,38,16.90
2012,08,17,05,39,16.90
2012,08,17,05,40,16.90
2012,08,17,05,41,16.90
2012,08,17,05,42,16.80
2012,08,17,05,43,16.80
2012,08,17,05,44,16.80
2012,08,17,05,45,16.80
2012,08,17,05,46,16.80
2012,08,17,05,47,16.80
2012,08,17,05,48,16.70
2012,08,17,05,49,16.70
2012,08,17,05,50,16.70
2012,08,17,05,51,16.70
2012,08,17,05,52,16.70
2012,08,17,05,53,16.70
2012,08,17,05,54,16.70
2012,08,17,05,55,16.60
2012,08,17,05,56,16.60
2012,08,17,05,57,16.60
2012,08,17,05,58,16.60
2012,08,17,05,59,16.50
2012,08,17,06,00,16.50
2012,08,17,06,01,16.50
2012,08,17,06,02,16.40
2012,08,17,06,03,16.40
2012,08,17,06,04,16.40
2012,08,17,06,05,16.30
2012,08,17,06,06,16.30
2012,08,17,06,07,16.30
2012,08,17,06,08,16.30
2012,08,17,06,09,16.30
2012,08,17,06,10,16.30
2012,08,17,06,11,16.30
2012,08,17,06,12,16.30
2012,08,17,06,13,16.30
2012,08,17,06,14,16.20
2012,08,17,06,15,16.20
2012,08,17,06,16,16.20
2012,08,17,06,17,16.10
2012,08,17,06,18,16.10
2012,08,17,06,19,16.10
2012,08,17,06,20,16.10
2012,08,17,06,21,16.10
2012,08,17,06,22,16.10
2012,08,17,06,23,16.10
2012,08,17,06,24,16.10
2012,08,17,06,25,16.10
2012,08,17,06,26,16.10
2012,08,17,06,27,16.10
2012,08,17,06,28,16.10
2012,08,17,06,29,16.10
2012,08,17,06,30,16.10
2012,08,17,06,31,16.10
2012,08,17,06,32,16.20
2012,08,17,06,33,16.20
2012,08,17,06,34,16.10
2012,08,17,06,35,16.10
2012,08,17,06,36,16.10
2012,08,17,06,37,16.20
2012,08,17,06,38,16.10
2012,08,17,06,39,16.10
2012,08,17,06,40,16.10
2012,08,17,06,41,16.10
2012,08,17,06,42,16.10
2012,08,17,06,43,16.10
2012,08,17,06,44,16.10
2012,08,17,06,45,16.20
2012,08,17,06,46,16.20
2012,08,17,06,47,16.20
2012,08,17,06,48,16.20
2012,08,17,06,49,16.20
2012,08,17,06,50,16.20
2012,08,17,06,51,16.30
2012,08,17,06,52,16.30
2012,08,17,06,53,16.30
2012,08,17,06,54,16.40
2012,08,17,06,55,16.40
2012,08,17,06,56,16.50
2012,08,17,06,57,16.50
2012,08,17,06,58,16.60
2012,08,17,06,59,16.60
2012,08,17,07,00,16.60
2012,08,17,07,01,16.60
2012,08,17,07,02,16.70
2012,08,17,07,03,16.70
2012,08,17,07,04,16.70
2012,08,17,07,05,16.80
2012,08,17,07,06,16.80
2012,08,17,07,07,16.80
2012,08,17,07,08,16.90
2012,08,17,07,09,17.00
2012,08,17,07,10,17.00
2012,08,17,07,11,17.10
2012,08,17,07,12,17.20
2012,08,17,07,13,17.20
2012,08,17,07,14,17.30
2012,08,17,07,15,17.40
2012,08,17,07,16,17.40
2012,08,17,07,17,17.50
2012,08,17,07,18,17.50
2012,08,17,07,19,17.60
2012,08,17,07,20,17.60
2012,08,17,07,21,17.60
2012,08,17,07,22,17.60
2012,08,17,07,23,17.70
2012,08,17,07,24,17.70
2012,08,17,07,25,17.80
2012,08,17,07,26,17.80
2012,08,17,07,27,17.90
2012,08,17,07,28,17.90
2012,08,17,07,29,18.00
2012,08,17,07,30,18.10
2012,08,17,07,31,18.20
2012,08,17,07,32,18.20
2012,08,17,07,33,18.30
2012,08,17,07,34,18.40
2012,08,17,07,35,18.50
2012,08,17,07,36,18.60
2012,08,17,07,37,18.80
2012,08,17,07,38,18.90
2012,08,17,07,39,19.00
2012,08,17,07,40,19.10
2012,08,17,07,41,19.30
2012,08,17,07,42,19.40
2012,08,17,07,43,19.60
2012,08,17,07,44,19.70
2012,08,17,07,45,19.80
2012,08,17,07,46,19.90
2012,08,17,07,47,20.00
2012,08,17,07,48,20.10
2012,08,17,07,49,20.20
2012,08,17,07,50,20.20
2012,08,17,07,51,20.30
2012,08,17,07,52,20.40
2012,08,17,07,53,20.50
2012,08,17,07,54,20.50
2012,08,17,07,55,20.60
2012,08,17,07,56,20.70
2012,08,17,07,57,20.80
2012,08,17,07,58,20.90
2012,08,17,07,59,21.00
2012,08,17,08,00,21.00
2012,08,17,08,01,21.10
2012,08,17,08,02,21.20
2012,08,17,08,03,21.30
2012,08,17,08,04,21.30
2012,08,17,08,05,21.30
2012,08,17,08,06,21.40
2012,08,17,08,07,21.40
2012,08,17,08,08,21.40
2012,08,17,08,09,21.50
2012,08,17,08,10,21.50
2012,08,17,08,11,21.50
2012,08,17,08,12,21.50
2012,08,17,08,13,21.50
2012,08,17,08,14,21.50
2012,08,17,08,15,21.50
2012,08,17,08,16,21.50
2012,08,17,08,17,21.50
2012,08,17,08,18,21.60
2012,08,17,08,19,21.50
2012,08,17,08,20,21.60
2012,08,17,08,21,21.60
2012,08,17,08,22,21.60
2012,08,17,08,23,21.60
2012,08,17,08,24,21.70
2012,08,17,08,25,21.70
2012,08,17,08,26,21.70
2012,08,17,08,27,21.70
2012,08,17,08,28,21.70
2012,08,17,08,29,21.70
2012,08,17,08,30,21.70
2012,08,17,08,31,21.80
2012,08,17,08,32,21.80
2012,08,17,08,33,21.80
2012,08,17,08,34,21.80
2012,08,17,08,35,21.80
2012,08,17,08,36,21.90
2012,08,17,08,37,22.00
2012,08,17,08,38,22.00
2012,08,17,08,39,22.10
2012,08,17,08,40,22.10
2012,08,17,08,41,22.20
2012,08,17,08,42,22.20
2012,08,17,08,43,22.30
2012,08,17,08,44,22.30
2012,08,17,08,45,22.40
2012,08,17,08,46,22.40
2012,08,17,08,47,22.50
2012,08,17,08,48,22.50
2012,08,17,08,49,22.50
2012,08,17,08,50,22.60
2012,08,17,08,51,22.60
2012,08,17,08,52,22.70
2012,08,17,08,53,22.70
2012,08,17,08,54,22.80
2012,08,17,08,55,22.80
2012,08,17,08,56,22.80
2012,08,17,08,57,22.80
2012,08,17,08,58,22.80
2012,08,17,08,59,22.80
2012,08,17,09,00,22.80
2012,08,17,09,01,22.80
2012,08,17,09,02,22.80
2012,08,17,09,03,22.90
2012,08,17,09,04,22.90
2012,08,17,09,05,23.00
2012,08,17,09,06,23.10
2012,08,17,09,07,23.20
2012,08,17,09,08,23.20
2012,08,17,09,09,23.20
2012,08,17,09,10,23.20
2012,08,17,09,11,23.20
2012,08,17,09,12,23.30
2012,08,17,09,13,23.30
2012,08,17,09,14,23.30
2012,08,17,09,15,23.30
2012,08,17,09,16,23.20
2012,08,17,09,17,23.20
2012,08,17,09,18,23.20
2012,08,17,09,19,23.30
2012,08,17,09,20,23.20
2012,08,17,09,21,23.20
2012,08,17,09,22,23.10
2012,08,17,09,23,23.10
2012,08,17,09,24,23.10
2012,08,17,09,25,23.10
2012,08,17,09,26,23.10
2012,08,17,09,27,23.10
2012,08,17,09,28,23.10
2012,08,17,09,29,23.10
2012,08,17,09,30,23.00
2012,08,17,09,31,23.00
2012,08,17,09,32,22.90
2012,08,17,09,33,22.80
2012,08,17,09,34,22.80
2012,08,17,09,35,22.80
2012,08,17,09,36,22.80
2012,08,17,09,37,22.90
2012,08,17,09,38,22.90
2012,08,17,09,39,23.00
2012,08,17,09,40,23.00
2012,08,17,09,41,22.90
2012,08,17,09,42,22.90
2012,08,17,09,43,22.90
2012,08,17,09,44,22.80
2012,08,17,09,45,22.80
2012,08,17,09,46,22.70
2012,08,17,09,47,22.70
2012,08,17,09,48,22.80
2012,08,17,09,49,22.80
2012,08,17,09,50,22.80
2012,08,17,09,51,22.80
2012,08,17,09,52,22.80
2012,08,17,09,53,22.80
2012,08,17,09,54,22.90
2012,08,17,09,55,22.90
2012,08,17,09,56,23.00
2012,08,17,09,57,23.00
2012,08,17,09,58,23.10
2012,08,17,09,59,23.10
2012,08,17,10,00,23.20
2012,08,17,10,01,23.20
2012,08,17,10,02,23.30
2012,08,17,10,03,23.40
2012,08,17,10,04,23.40
2012,08,17,10,05,23.40
2012,08,17,10,06,23.50
2012,08,17,10,07,23.50
2012,08,17,10,08,23.60
2012,08,17,10,09,23.60
2012,08,17,10,10,23.70
2012,08,17,10,11,23.80
2012,08,17,10,12,23.80
2012,08,17,10,13,23.80
2012,08,17,10,14,23.80
2012,08,17,10,15,23.70
2012,08,17,10,16,23.60
2012,08,17,10,17,23.50
2012,08,17,10,18,23.40
2012,08,17,10,19,23.40
2012,08,17,10,20,23.30
2012,08,17,10,21,23.30
2012,08,17,10,22,23.30
2012,08,17,10,23,23.30
2012,08,17,10,24,23.20
2012,08,17,10,25,23.20
2012,08,17,10,26,23.30
2012,08,17,10,27,23.30
2012,08,17,10,28,23.40
2012,08,17,10,29,23.40
2012,08,17,10,30,23.40
2012,08,17,10,31,23.40
2012,08,17,10,32,23.50
2012,08,17,10,33,23.50
2012,08,17,10,34,23.60
2012,08,17,10,35,23.70
2012,08,17,10,36,23.80
2012,08,17,10,37,23.80
2012,08,17,10,38,23.80
2012,08,17,10,39,23.70
2012,08,17,10,40,23.70
2012,08,17,10,41,23.70
2012,08,17,10,42,23.70
2012,08,17,10,43,23.70
2012,08,17,10,44,23.70
2012,08,17,10,45,23.70
2012,08,17,10,46,23.70
2012,08,17,10,47,23.80
2012,08,17,10,48,23.90
2012,08,17,10,49,24.10
2012,08,17,10,50,24.30
2012,08,17,10,51,24.50
2012,08,17,10,52,24.70
2012,08,17,10,53,24.80
2012,08,17,10,54,24.90
2012,08,17,10,55,24.90
2012,08,17,10,56,24.80
2012,08,17,10,57,24.80
2012,08,17,10,58,24.70
2012,08,17,10,59,24.60
2012,08,17,11,00,24.60
2012,08,17,11,01,24.50
2012,08,17,11,02,24.40
2012,08,17,11,03,24.30
2012,08,17,11,04,24.30
2012,08,17,11,05,24.30
2012,08,17,11,06,24.30
2012,08,17,11,07,24.30
2012,08,17,11,08,24.30
2012,08,17,11,09,24.20
2012,08,17,11,10,24.20
2012,08,17,11,11,24.20
2012,08,17,11,12,24.20
2012,08,17,11,13,24.20
2012,08,17,11,14,24.20
2012,08,17,11,15,24.20
2012,08,17,11,16,24.30
2012,08,17,11,17,24.30
2012,08,17,11,18,24.30
2012,08,17,11,19,24.40
2012,08,17,11,20,24.40
2012,08,17,11,21,24.40
2012,08,17,11,22,24.40
2012,08,17,11,23,24.40
2012,08,17,11,24,24.40
2012,08,17,11,25,24.50
2012,08,17,11,26,24.60
2012,08,17,11,27,24.70
2012,08,17,11,28,24.90
2012,08,17,11,29,25.10
2012,08,17,11,30,25.20
2012,08,17,11,31,25.30
2012,08,17,11,32,25.40
2012,08,17,11,33,25.50
2012,08,17,11,34,25.60
2012,08,17,11,35,25.70
2012,08,17,11,36,25.80
2012,08,17,11,37,25.90
2012,08,17,11,38,26.00
2012,08,17,11,39,26.20
2012,08,17,11,40,26.30
2012,08,17,11,41,26.50
2012,08,17,11,42,26.70
2012,08,17,11,43,26.90
2012,08,17,11,44,27.10
2012,08,17,11,45,27.10
2012,08,17,11,46,27.00
2012,08,17,11,47,26.80
2012,08,17,11,48,26.50
2012,08,17,11,49,26.30
2012,08,17,11,50,26.10
2012,08,17,11,51,26.00
2012,08,17,11,52,25.90
2012,08,17,11,53,25.90
2012,08,17,11,54,25.80
2012,08,17,11,55,25.80
2012,08,17,11,56,25.80
2012,08,17,11,57,25.80
2012,08,17,11,58,25.80
2012,08,17,11,59,26.00
2012,08,17,12,00,26.10
2012,08,17,12,01,26.20
2012,08,17,12,02,26.20
2012,08,17,12,03,26.10
2012,08,17,12,04,26.20
2012,08,17,12,05,26.30
2012,08,17,12,06,26.30
2012,08,17,12,07,26.20
2012,08,17,12,08,26.20
2012,08,17,12,09,26.20
2012,08,17,12,10,26.30
2012,08,17,12,11,26.30
2012,08,17,12,12,26.40
2012,08,17,12,13,26.40
2012,08,17,12,14,26.40
2012,08,17,12,15,26.40
2012,08,17,12,16,26.40
2012,08,17,12,17,26.50
2012,08,17,12,18,26.50
2012,08,17,12,19,26.60
2012,08,17,12,20,26.70
2012,08,17,12,21,26.70
2012,08,17,12,22,26.70
2012,08,17,12,23,26.50
2012,08,17,12,24,26.20
2012,08,17,12,25,25.90
2012,08,17,12,26,25.70
2012,08,17,12,27,25.50
2012,08,17,12,28,25.30
2012,08,17,12,29,25.20
2012,08,17,12,30,25.10
2012,08,17,12,31,25.10
2012,08,17,12,32,25.00
2012,08,17,12,33,25.00
2012,08,17,12,34,25.00
2012,08,17,12,35,25.00
2012,08,17,12,36,25.10
2012,08,17,12,37,25.10
2012,08,17,12,38,25.10
2012,08,17,12,39,25.00
2012,08,17,12,40,25.00
2012,08,17,12,41,25.00
2012,08,17,12,42,25.00
2012,08,17,12,43,25.10
2012,08,17,12,44,25.10
2012,08,17,12,45,25.00
2012,08,17,12,46,24.90
2012,08,17,12,47,24.80
2012,08,17,12,48,24.80
2012,08,17,12,49,24.70
2012,08,17,12,50,24.60
2012,08,17,12,51,24.60
2012,08,17,12,52,24.60
2012,08,17,12,53,24.60
2012,08,17,12,54,24.60
2012,08,17,12,55,24.60
2012,08,17,12,56,24.70
2012,08,17,12,57,24.70
2012,08,17,12,58,24.80
2012,08,17,12,59,24.80
2012,08,17,13,00,24.80
2012,08,17,13,01,24.80
2012,08,17,13,02,24.80
2012,08,17,13,03,24.80
2012,08,17,13,04,24.80
2012,08,17,13,05,24.80
2012,08,17,13,06,24.80
2012,08,17,13,07,24.80
2012,08,17,13,08,24.70
2012,08,17,13,09,24.70
2012,08,17,13,10,24.60
2012,08,17,13,11,24.70
2012,08,17,13,12,24.80
2012,08,17,13,13,24.80
2012,08,17,13,14,24.80
2012,08,17,13,15,24.80
2012,08,17,13,16,24.90
2012,08,17,13,17,24.80
2012,08,17,13,18,24.80
2012,08,17,13,19,24.80
2012,08,17,13,20,24.80
2012,08,17,13,21,24.80
2012,08,17,13,22,24.80
2012,08,17,13,23,24.80
2012,08,17,13,24,24.80
2012,08,17,13,25,24.70
2012,08,17,13,26,24.60
2012,08,17,13,27,24.60
2012,08,17,13,28,24.50
2012,08,17,13,29,24.50
2012,08,17,13,30,24.50
2012,08,17,13,31,24.50
2012,08,17,13,32,24.60
2012,08,17,13,33,24.70
2012,08,17,13,34,24.80
2012,08,17,13,35,24.90
2012,08,17,13,36,24.90
2012,08,17,13,37,25.00
2012,08,17,13,38,25.00
2012,08,17,13,39,25.10
2012,08,17,13,40,25.10
2012,08,17,13,41,25.20
2012,08,17,13,42,25.30
2012,08,17,13,43,25.30
2012,08,17,13,44,25.30
2012,08,17,13,45,25.30
2012,08,17,13,46,25.50
2012,08,17,13,47,25.60
2012,08,17,13,48,25.70
2012,08,17,13,49,25.80
2012,08,17,13,50,25.80
2012,08,17,13,51,25.90
2012,08,17,13,52,25.90
2012,08,17,13,53,25.90
2012,08,17,13,54,25.90
2012,08,17,13,55,25.90
2012,08,17,13,56,25.90
2012,08,17,13,57,25.90
2012,08,17,13,58,26.00
2012,08,17,13,59,26.00
2012,08,17,14,00,26.00
2012,08,17,14,01,26.00
2012,08,17,14,02,26.20
2012,08,17,14,03,26.20
2012,08,17,14,04,26.30
2012,08,17,14,05,26.30
2012,08,17,14,06,26.30
2012,08,17,14,07,26.40
2012,08,17,14,08,26.40
2012,08,17,14,09,26.40
2012,08,17,14,10,26.40
2012,08,17,14,11,26.40
2012,08,17,14,12,26.30
2012,08,17,14,13,26.30
2012,08,17,14,14,26.20
2012,08,17,14,15,26.10
2012,08,17,14,16,26.00
2012,08,17,14,17,25.90
2012,08,17,14,18,25.90
2012,08,17,14,19,25.70
2012,08,17,14,20,25.70
2012,08,17,14,21,25.70
2012,08,17,14,22,25.60
2012,08,17,14,23,25.60
2012,08,17,14,24,25.70
2012,08,17,14,25,25.70
2012,08,17,14,26,25.60
2012,08,17,14,27,25.50
2012,08,17,14,28,25.50
2012,08,17,14,29,25.50
2012,08,17,14,30,25.60
2012,08,17,14,31,25.50
2012,08,17,14,32,25.40
2012,08,17,14,33,25.40
2012,08,17,14,34,25.40
2012,08,17,14,35,25.30
2012,08,17,14,36,25.30
2012,08,17,14,37,25.30
2012,08,17,14,38,25.20
2012,08,17,14,39,25.20
2012,08,17,14,40,25.20
2012,08,17,14,41,25.30
2012,08,17,14,42,25.30
2012,08,17,14,43,25.30
2012,08,17,14,44,25.30
2012,08,17,14,45,25.40
2012,08,17,14,46,25.40
2012,08,17,14,47,25.40
2012,08,17,14,48,25.50
2012,08,17,14,49,25.50
2012,08,17,14,50,25.50
2012,08,17,14,51,25.60
2012,08,17,14,52,25.60
2012,08,17,14,53,25.70
2012,08,17,14,54,25.70
2012,08,17,14,55,25.80
2012,08,17,14,56,25.80
2012,08,17,14,57,25.80
2012,08,17,14,58,25.80
2012,08,17,14,59,25.80
2012,08,17,15,00,25.90
2012,08,17,15,01,25.90
2012,08,17,15,02,25.80
2012,08,17,15,03,25.80
2012,08,17,15,04,25.80
2012,08,17,15,05,25.80
2012,08,17,15,06,25.80
2012,08,17,15,07,25.80
2012,08,17,15,08,25.80
2012,08,17,15,09,25.80
2012,08,17,15,10,25.90
2012,08,17,15,11,25.90
2012,08,17,15,12,25.90
2012,08,17,15,13,25.90
2012,08,17,15,14,25.90
2012,08,17,15,15,25.90
2012,08,17,15,16,25.90
2012,08,17,15,17,25.90
2012,08,17,15,18,25.90
2012,08,17,15,19,25.90
2012,08,17,15,20,25.90
2012,08,17,15,21,25.90
2012,08,17,15,22,25.90
2012,08,17,15,23,25.90
2012,08,17,15,24,25.90
2012,08,17,15,25,25.90
2012,08,17,15,26,25.80
2012,08,17,15,27,25.70
2012,08,17,15,28,25.60
2012,08,17,15,29,25.60
2012,08,17,15,30,25.50
2012,08,17,15,31,25.40
2012,08,17,15,32,25.40
2012,08,17,15,33,25.30
2012,08,17,15,34,25.20
2012,08,17,15,35,25.20
2012,08,17,15,36,25.20
2012,08,17,15,37,25.20
2012,08,17,15,38,25.20
2012,08,17,15,39,25.30
2012,08,17,15,40,25.40
2012,08,17,15,41,25.50
2012,08,17,15,42,25.70
2012,08,17,15,43,25.90
2012,08,17,15,44,25.90
2012,08,17,15,45,25.90
2012,08,17,15,46,26.00
2012,08,17,15,47,26.00
2012,08,17,15,48,26.10
2012,08,17,15,49,26.10
2012,08,17,15,50,26.00
2012,08,17,15,51,26.10
2012,08,17,15,52,26.10
2012,08,17,15,53,26.20
2012,08,17,15,54,26.20
2012,08,17,15,55,26.20
2012,08,17,15,56,26.20
2012,08,17,15,57,26.10
2012,08,17,15,58,26.00
2012,08,17,15,59,25.90
2012,08,17,16,00,25.90
2012,08,17,16,01,25.90
2012,08,17,16,02,25.90
2012,08,17,16,03,25.90
2012,08,17,16,04,25.90
2012,08,17,16,05,25.90
2012,08,17,16,06,26.00
2012,08,17,16,07,26.00
2012,08,17,16,08,26.10
2012,08,17,16,09,26.20
2012,08,17,16,10,26.20
2012,08,17,16,11,26.20
2012,08,17,16,12,26.30
2012,08,17,16,13,26.30
2012,08,17,16,14,26.40
2012,08,17,16,15,26.40
2012,08,17,16,16,26.40
2012,08,17,16,17,26.40
2012,08,17,16,18,26.40
2012,08,17,16,19,26.40
2012,08,17,16,20,26.30
2012,08,17,16,21,26.30
2012,08,17,16,22,26.30
2012,08,17,16,23,26.30
2012,08,17,16,24,26.30
2012,08,17,16,25,26.30
2012,08,17,16,26,26.30
2012,08,17,16,27,26.30
2012,08,17,16,28,26.30
2012,08,17,16,29,26.40
2012,08,17,16,30,26.40
2012,08,17,16,31,26.50
2012,08,17,16,32,26.50
2012,08,17,16,33,26.60
2012,08,17,16,34,26.70
2012,08,17,16,35,26.70
2012,08,17,16,36,26.80
2012,08,17,16,37,26.80
2012,08,17,16,38,26.80
2012,08,17,16,39,26.80
2012,08,17,16,40,26.90
2012,08,17,16,41,26.90
2012,08,17,16,42,26.90
2012,08,17,16,43,27.00
2012,08,17,16,44,27.00
2012,08,17,16,45,27.10
2012,08,17,16,46,27.10
2012,08,17,16,47,27.20
2012,08,17,16,48,27.20
2012,08,17,16,49,27.20
2012,08,17,16,50,27.20
2012,08,17,16,51,27.20
2012,08,17,16,52,27.10
2012,08,17,16,53,27.10
2012,08,17,16,54,27.10
2012,08,17,16,55,27.00
2012,08,17,16,56,26.90
2012,08,17,16,57,26.90
2012,08,17,16,58,27.00
2012,08,17,16,59,27.00
2012,08,17,17,00,26.90
2012,08,17,17,01,26.90
2012,08,17,17,02,26.90
2012,08,17,17,03,26.90
2012,08,17,17,04,26.90
2012,08,17,17,05,26.90
2012,08,17,17,06,26.90
2012,08,17,17,07,26.90
2012,08,17,17,08,27.00
2012,08,17,17,09,27.10
2012,08,17,17,10,27.10
2012,08,17,17,11,27.10
2012,08,17,17,12,27.10
2012,08,17,17,13,27.10
2012,08,17,17,14,27.10
2012,08,17,17,15,27.10
2012,08,17,17,16,27.10
2012,08,17,17,17,27.10
2012,08,17,17,18,27.10
2012,08,17,17,19,27.00